St. Kitts, Saint Kitts and Nevis

8:06 AM AST on June 27, 2017 (GMT -0400)
St. Kitts

Weather History for TKPK - February, 2014

Change the Weather History Date:

Thursday, February 6, 2014

  Actual Average Record
Temperature  
Mean Temperature 78 °F -  
Max Temperature 83 °F 81 °F 86 °F (1998)
Min Temperature 73 °F 72 °F 69 °F (2016)
Cooling Degree Days 14    
Growing Degree Days 28 (Base 50)    
Moisture  
Dew Point 71 °F    
Average Humidity 75    
Maximum Humidity 94    
Minimum Humidity 62    
Precipitation  
Precipitation 0.00 in - - ()
Sea Level Pressure  
Sea Level Pressure 30.03 in    
Wind  
Wind Speed 12 mph ()    
Max Wind Speed 21 mph    
Max Gust Speed -    
Visibility 9.0 miles    
Events Rain , Thunderstorm    
Averages and records for this station are not official NWS values.
T = Trace of Precipitation, MM = Missing Value Source: Averaged Metar Reports

Daily Weather History Graph

Daily Weather History Graph

Search for Another Location

Airport or City:

Trip Planner

Search our weather history database for the weather conditions in past years. The results will help you decide how hot, cold, wet, or windy it might be!

Date:

Astronomy

Feb. 06, 2014 Rise Set
Actual Time 6:41 AM AST 6:08 PM AST
Civil Twilight 6:18 AM AST 6:31 PM AST
Nautical Twilight 5:52 AM AST 6:57 PM AST
Astronomical Twilight 5:27 AM AST 7:22 PM AST
Moon 11:39 AM AST (2/6) No Moon Set
Length of Visible Light 12h 12m
Length of Day
11h 27m
Waxing Crescent, 48% of the Moon is Illuminated
Feb 6
Waxing Crescent
Feb 6
First Quarter
Feb 14
Full
Feb 22
Last Quarter
Mar 1
New

Hourly Weather History & Observations

Time (AST) Temp. Heat Index Dew Point Humidity Pressure Visibility Wind Dir Wind Speed Gust Speed Precip Events Conditions
6:00 AM 75.2 °F - 69.8 °F 83% 30.01 in 6.2 mi NE 11.5 mph - N/A Thunderstorm Thunderstorm
7:00 AM 77.0 °F - 69.8 °F 78% 30.01 in 6.2 mi East 11.5 mph - N/A   Partly Cloudy
8:00 AM 78 °F - 70 °F 70% 30.05 in 17 mi East 11.5 mph - -   Partly Cloudy
8:00 AM 78.8 °F - 69.8 °F 74% 30.04 in 6.2 mi East 11.5 mph - N/A   Partly Cloudy
9:00 AM 80.6 °F 83.9 °F 69.8 °F 70% 30.06 in 6.2 mi East 15.0 mph - N/A   Partly Cloudy
10:00 AM 82.4 °F 87.2 °F 71.6 °F 70% 30.06 in 6.2 mi East 17.3 mph - N/A   Partly Cloudy
11:00 AM 82 °F - 72 °F 64% 30.07 in 19 mi East 13.8 mph - -   Partly Cloudy
11:00 AM 82.4 °F 87.2 °F 71.6 °F 70% 30.06 in 6.2 mi East 13.8 mph - N/A   Scattered Clouds
12:00 PM 80.6 °F 84.6 °F 71.6 °F 74% 30.04 in 6.2 mi ENE 16.1 mph - N/A   Mostly Cloudy
1:00 PM 82.4 °F 86.3 °F 69.8 °F 66% 30.04 in 6.2 mi ENE 16.1 mph - N/A   Mostly Cloudy
2:00 PM 82 °F - 71 °F 62% 30.01 in 18 mi NE 18.4 mph - -   Scattered Clouds
2:00 PM 82.4 °F 87.2 °F 71.6 °F 70% 30.01 in 6.2 mi NE 18.4 mph - N/A   Partly Cloudy
3:00 PM 82.4 °F 86.3 °F 69.8 °F 66% 29.98 in 6.2 mi NE 20.7 mph - N/A   Scattered Clouds
4:00 PM 80.6 °F 84.6 °F 71.6 °F 74% 30.01 in 6.2 mi NE 19.6 mph - N/A   Partly Cloudy
5:00 PM 79 °F - 71 °F 72% 30.01 in 18 mi NE 13.8 mph - -   Scattered Clouds
5:00 PM 78.8 °F - 71.6 °F 78% 30.01 in 6.2 mi NE 13.8 mph - N/A   Partly Cloudy
6:00 PM 77.0 °F - 71.6 °F 83% 30.01 in 6.2 mi ENE 15.0 mph - N/A   Scattered Clouds
7:00 PM 77.0 °F - 71.6 °F 83% 30.01 in 6.2 mi ENE 12.7 mph - N/A   Partly Cloudy
8:00 PM 75 °F - 72 °F 88% 30.05 in 17 mi ENE 11.5 mph - - Rain Light Rain Showers
8:00 PM 75.2 °F - 71.6 °F 89% 30.04 in 6.2 mi ENE 11.5 mph - N/A   Scattered Clouds
9:00 PM 73.4 °F - 71.6 °F 94% 30.06 in 6.2 mi NNE 11.5 mph - N/A   Scattered Clouds